Location: Unspecified
(0.0000°N, 0.0000°E)
Time: 11:39:34
(UTC+02:00)

Vanguard 2 Rocket - All Passes

Search period start: 21 April 2018 00:00
Search period end: 01 May 2018 00:00
Orbit: 553 x 3328 km, 32.9° (Epoch: 20 April)

Date Brightness Start Highest point End Pass type
(mag) Time Alt. Az. Time Alt. Az. Time Alt. Az.
21 Apr - 01:23:04 10° SSW 01:30:14 34° SE 01:41:49 10° E visible
21 Apr - 03:34:40 10° WSW 03:45:14 77° NW 04:03:24 10° NE visible
21 Apr - 05:51:03 10° W 06:04:16 35° NNW 06:21:41 10° NE visible
21 Apr - 08:14:50 10° NW 08:27:30 20° N 08:40:04 10° NNE daylight
21 Apr - 10:39:55 10° NNW 10:52:02 19° N 11:01:42 10° NE daylight
21 Apr - 12:58:53 10° NW 13:12:27 36° NNE 13:20:49 10° E daylight
21 Apr - 15:16:59 10° WNW 15:28:17 77° SW 15:34:29 10° SE daylight
22 Apr - 00:25:40 10° S 00:30:31 18° SE 00:37:10 10° E night (unlit)
22 Apr - 02:35:29 10° SW 02:44:26 79° SE 03:00:37 10° ENE visible
22 Apr - 04:49:54 10° W 05:01:50 43° NNW 05:19:38 10° NE visible
22 Apr - 07:10:47 10° WNW 07:23:38 23° NNW 07:37:52 10° NNE visible
22 Apr - 09:36:19 10° NW 09:48:34 19° N 09:59:14 10° NE daylight
22 Apr - 11:56:40 10° NNW 12:10:48 29° NNE 12:20:21 10° ENE daylight
22 Apr - 14:14:47 10° NW 14:28:19 73° NNE 14:35:40 10° ESE daylight
22 Apr - 16:35:09 10° W 16:41:47 24° SW 16:46:21 10° S daylight
23 Apr - 01:36:50 10° SW 01:44:18 53° SE 01:57:32 10° ENE visible
23 Apr - 03:49:38 10° WSW 04:00:02 55° NNW 04:17:22 10° NE visible
23 Apr - 06:07:51 10° WNW 06:20:12 26° NNW 06:35:38 10° NNE visible
23 Apr - 08:32:23 10° NW 08:44:35 18° N 08:56:17 10° NE daylight
23 Apr - 10:54:12 10° NNW 11:08:27 25° NNE 11:19:04 10° ENE daylight
23 Apr - 13:12:33 10° NW 13:27:41 53° NNE 13:36:21 10° ESE daylight
23 Apr - 15:32:01 10° WNW 15:42:29 45° SW 15:48:35 10° SSE daylight
24 Apr - 00:38:45 10° SSW 00:44:40 31° SE 00:54:04 10° E night (unlit)
24 Apr - 02:50:03 10° WSW 02:58:56 72° NNW 03:14:57 10° NE visible
24 Apr - 05:06:02 10° W 05:17:24 31° NNW 05:33:22 10° NE visible
24 Apr - 07:28:34 10° NW 07:40:29 19° N 07:53:10 10° NNE visible
24 Apr - 09:51:32 10° NNW 10:05:23 22° NNE 10:16:51 10° ENE daylight
24 Apr - 12:10:18 10° NW 12:26:22 42° NNE 12:36:25 10° E daylight
24 Apr - 14:29:11 10° WNW 14:42:47 74° SW 14:50:10 10° SE daylight
24 Apr - 16:52:53 10° WSW 16:56:00 13° SW 16:58:38 10° SSW daylight
24 Apr - 23:41:40 10° S 23:45:15 15° SE 23:49:50 10° ESE night (unlit)
25 Apr - 01:51:00 10° SW 01:58:31 83° SE 02:12:25 10° ENE visible
25 Apr - 04:05:11 10° W 04:15:17 38° NNW 04:31:05 10° NE visible
25 Apr - 06:25:19 10° NW 06:36:41 21° N 06:50:07 10° NNE visible
25 Apr - 08:48:40 10° NNW 09:01:41 20° N 09:13:42 10° NE daylight
25 Apr - 11:08:02 10° NW 11:24:23 34° NNE 11:35:46 10° E daylight
25 Apr - 13:26:32 10° NW 13:42:29 79° NE 13:51:15 10° ESE daylight
25 Apr - 15:47:58 10° W 15:56:32 27° SW 16:02:09 10° SSE daylight
26 Apr - 00:52:28 10° SW 00:58:44 52° SE 01:09:44 10° ENE night (unlit)
26 Apr - 03:05:06 10° W 03:13:51 48° NNW 03:28:51 10° NE visible
26 Apr - 05:22:55 10° WNW 05:33:28 24° NNW 05:47:17 10° NNE visible
26 Apr - 07:45:44 10° NW 07:57:37 19° N 08:09:48 10° NE daylight
26 Apr - 10:05:50 10° NNW 10:21:42 28° NNE 10:34:10 10° ENE daylight
26 Apr - 12:24:03 10° NW 12:41:30 60° NNE 12:51:48 10° ESE daylight
26 Apr - 14:44:16 10° WNW 14:56:56 47° SW 15:04:14 10° SSE daylight
26 Apr - 23:54:30 10° SSW 23:59:23 28° SE 00:06:49 10° E night (unlit)
27 Apr - 02:05:39 10° WSW 02:13:05 65° NNW 02:26:40 10° NE visible
27 Apr - 04:21:27 10° WNW 04:30:58 27° NNW 04:44:43 10° NNE visible
27 Apr - 06:42:53 10° NW 06:53:35 18° N 07:05:40 10° NE visible
27 Apr - 09:03:40 10° NNW 09:18:25 24° NNE 09:31:27 10° ENE daylight
27 Apr - 11:21:45 10° NW 11:39:49 47° NNE 11:51:41 10° E daylight
27 Apr - 13:41:01 10° WNW 13:56:53 72° SW 14:05:41 10° SE daylight
27 Apr - 16:05:22 10° WSW 16:10:45 15° SW 16:14:54 10° S daylight
27 Apr - 22:57:50 10° SSE 23:00:10 13° SE 23:02:55 10° ESE night (unlit)
28 Apr - 01:06:41 10° SW 01:12:59 87° SE 01:24:32 10° NE visible
28 Apr - 03:20:48 10° W 03:29:11 33° NNW 03:42:28 10° NE visible
28 Apr - 05:40:24 10° NW 05:50:00 19° N 06:01:48 10° NNE visible
28 Apr - 08:01:37 10° NNW 08:14:38 20° NNE 08:27:33 10° NE daylight
28 Apr - 10:19:41 10° NW 10:37:30 38° NNE 10:50:45 10° E daylight
28 Apr - 12:38:07 10° NW 12:56:12 84° NE 13:06:37 10° ESE daylight
28 Apr - 15:00:16 10° W 15:11:00 29° SW 15:17:50 10° SSE daylight
29 Apr - 00:08:12 10° SW 00:13:28 52° SE 00:22:26 10° ENE night (unlit)
29 Apr - 02:20:50 10° W 02:28:06 41° NNW 02:40:28 10° NE visible
29 Apr - 04:38:29 10° NW 04:47:05 20° NNW 04:58:32 10° NNE visible
29 Apr - 06:59:40 10° NNW 07:10:40 18° N 07:22:41 10° NE visible
29 Apr - 09:17:53 10° NNW 09:34:36 31° NNE 09:48:45 10° ENE daylight
29 Apr - 11:35:35 10° NW 11:54:49 65° NNE 12:06:57 10° ESE daylight
29 Apr - 13:56:09 10° WNW 14:11:01 48° SW 14:19:42 10° SSE daylight
29 Apr - 23:10:17 10° SSW 23:14:20 25° SE 23:20:07 10° E night (unlit)
30 Apr - 01:21:25 10° WSW 01:27:38 56° NNW 01:38:43 10° NE visible
30 Apr - 03:37:16 10° WNW 03:44:56 23° NNW 03:55:54 10° NNE visible
30 Apr - 05:57:48 10° NNW 06:06:53 16° N 06:17:32 10° NE visible
30 Apr - 08:16:22 10° NNW 08:31:13 25° NNE 08:45:29 10° ENE daylight
30 Apr - 10:33:27 10° NW 10:52:48 51° NNE 11:06:34 10° ESE daylight
30 Apr - 12:52:38 10° WNW 13:10:31 70° SW 13:20:58 10° SE daylight
30 Apr - 15:17:33 10° W 15:25:16 18° SW 15:30:53 10° S daylight
30 Apr - 22:14:09 10° SSE 22:15:12 11° SE 22:16:19 10° SE night (unlit)
